Location: Czekanka
(50.4925°N, 19.2643°E)
Time: 07:06:48
(UTC+00:00)

SL-16 R/B - Pass Details

Date: 18 September 2024
Orbit: 842 x 846 km, 71.0° (Epoch: 05 October)

Event Time Altitude Azimuth Distance (km) Brightness Sun altitude
Rises 02:36:40 0° 332° (NNW) 3,413 5.3 -17.2°
Reaches altitude 10° 02:39:22 10° 342° (NNW) 2,474 4.7 -16.8°
Maximum altitude 02:44:30 34° 47° (NE) 1,370 4.0 -16.1°
Drops below altitude 10° 02:49:36 10° 111° (ESE) 2,461 5.3 -15.3°
Sets 02:52:16 0° 121° (ESE) 3,392 5.9 -14.9°
